TimeCST,TemperatureF,Dew PointF,Humidity,Sea Level PressureIn,VisibilityMPH,Wind Direction,Wind SpeedMPH,Gust SpeedMPH,PrecipitationIn,Events,Conditions,WindDirDegrees,DateUTC
12:15 AM,28.4,19.4,69,30.20,10.0,SSE,4.6,-,N/A,,Clear,150,2012-12-12 06:15:00
12:35 AM,30.2,19.4,64,30.20,10.0,South,4.6,-,N/A,,Clear,170,2012-12-12 06:35:00
12:55 AM,30.2,19.4,64,30.20,10.0,SE,3.5,-,N/A,,Clear,140,2012-12-12 06:55:00
1:15 AM,26.6,19.4,74,30.20,10.0,SE,4.6,-,N/A,,Clear,130,2012-12-12 07:15:00
1:35 AM,26.6,19.4,74,30.20,10.0,SSE,3.5,-,N/A,,Clear,150,2012-12-12 07:35:00
1:55 AM,26.6,19.4,74,30.20,10.0,SE,3.5,-,N/A,,Clear,140,2012-12-12 07:55:00
2:15 AM,26.6,19.4,74,30.20,10.0,SE,4.6,-,N/A,,Clear,140,2012-12-12 08:15:00
2:35 AM,26.6,19.4,74,30.20,10.0,SE,3.5,-,N/A,,Clear,140,2012-12-12 08:35:00
2:55 AM,26.6,19.4,74,30.20,10.0,SSE,3.5,-,N/A,,Clear,160,2012-12-12 08:55:00
3:15 AM,26.6,19.4,74,30.20,10.0,SSE,3.5,-,N/A,,Clear,160,2012-12-12 09:15:00
3:35 AM,26.6,19.4,74,30.20,10.0,South,3.5,-,N/A,,Clear,170,2012-12-12 09:35:00
3:55 AM,26.6,19.4,74,30.20,10.0,South,4.6,-,N/A,,Clear,180,2012-12-12 09:55:00
4:15 AM,32.0,14.0,48,30.20,10.0,SSW,6.9,-,N/A,,Clear,200,2012-12-12 10:15:00
4:35 AM,32.0,14.0,48,30.21,10.0,SSW,5.8,-,N/A,,Clear,200,2012-12-12 10:35:00
4:55 AM,30.2,15.8,55,30.21,10.0,South,4.6,-,N/A,,Clear,170,2012-12-12 10:55:00
5:15 AM,26.6,17.6,69,30.22,10.0,South,5.8,-,N/A,,Clear,190,2012-12-12 11:15:00
5:35 AM,32.0,14.0,48,30.22,10.0,SSW,5.8,-,N/A,,Clear,200,2012-12-12 11:35:00
5:55 AM,32.0,14.0,48,30.23,10.0,SSW,4.6,-,N/A,,Clear,200,2012-12-12 11:55:00
6:15 AM,33.8,12.2,41,30.23,10.0,SSW,6.9,-,N/A,,Clear,200,2012-12-12 12:15:00
6:35 AM,32.0,14.0,48,30.24,10.0,SSW,5.8,-,N/A,,Clear,200,2012-12-12 12:35:00
6:55 AM,32.0,14.0,48,30.24,10.0,SSW,4.6,-,N/A,,Clear,200,2012-12-12 12:55:00
7:15 AM,32.0,12.2,44,30.24,10.0,South,3.5,-,N/A,,Clear,190,2012-12-12 13:15:00
7:35 AM,26.6,15.8,64,30.25,10.0,Calm,Calm,-,N/A,,Clear,0,2012-12-12 13:35:00
7:55 AM,28.4,17.6,64,30.26,10.0,SSE,3.5,-,N/A,,Clear,150,2012-12-12 13:55:00
8:15 AM,30.2,19.4,64,30.26,10.0,SSE,3.5,-,N/A,,Clear,160,2012-12-12 14:15:00
8:35 AM,32.0,19.4,60,30.27,10.0,Calm,Calm,-,N/A,,Clear,0,2012-12-12 14:35:00
8:55 AM,35.6,15.8,44,30.27,10.0,South,5.8,-,N/A,,Clear,170,2012-12-12 14:55:00
9:15 AM,37.4,14.0,38,30.27,10.0,South,8.1,-,N/A,,Clear,190,2012-12-12 15:15:00
9:35 AM,39.2,15.8,39,30.28,10.0,South,6.9,-,N/A,,Clear,180,2012-12-12 15:35:00
9:55 AM,41.0,14.0,33,30.29,10.0,South,10.4,-,N/A,,Clear,190,2012-12-12 15:55:00
10:15 AM,42.8,14.0,31,30.28,10.0,SSW,9.2,-,N/A,,Clear,200,2012-12-12 16:15:00
10:35 AM,44.6,14.0,29,30.29,10.0,South,9.2,-,N/A,,Clear,190,2012-12-12 16:35:00
11:15 AM,46.4,12.2,25,30.28,10.0,SSW,9.2,-,N/A,,Clear,200,2012-12-12 17:15:00
11:35 AM,46.4,12.2,25,30.28,10.0,South,6.9,-,N/A,,Clear,190,2012-12-12 17:35:00
11:55 AM,48.2,12.2,24,30.27,10.0,SSW,6.9,-,N/A,,Clear,200,2012-12-12 17:55:00
12:15 PM,48.2,12.2,24,30.26,10.0,South,8.1,-,N/A,,Clear,190,2012-12-12 18:15:00
12:35 PM,50.0,12.2,22,30.25,10.0,South,8.1,-,N/A,,Clear,190,2012-12-12 18:35:00
12:55 PM,50.0,12.2,22,30.24,10.0,South,11.5,17.3,N/A,,Clear,170,2012-12-12 18:55:00
1:15 PM,50.0,12.2,22,30.24,10.0,South,10.4,17.3,N/A,,Clear,180,2012-12-12 19:15:00
1:35 PM,50.0,12.2,22,30.23,10.0,SSE,12.7,17.3,N/A,,Clear,160,2012-12-12 19:35:00
1:55 PM,50.0,12.2,22,30.22,10.0,South,11.5,-,N/A,,Clear,190,2012-12-12 19:55:00
2:15 PM,50.0,12.2,22,30.22,10.0,SSE,10.4,-,N/A,,Clear,150,2012-12-12 20:15:00
2:35 PM,50.0,12.2,22,30.22,10.0,SSE,10.4,18.4,N/A,,Clear,150,2012-12-12 20:35:00
2:55 PM,50.0,12.2,22,30.21,10.0,South,6.9,-,N/A,,Clear,170,2012-12-12 20:55:00
3:15 PM,50.0,12.2,22,30.22,10.0,SSE,11.5,17.3,N/A,,Clear,160,2012-12-12 21:15:00
3:35 PM,50.0,12.2,22,30.23,10.0,SSW,10.4,-,N/A,,Clear,200,2012-12-12 21:35:00
3:55 PM,50.0,12.2,22,30.23,10.0,South,5.8,-,N/A,,Clear,180,2012-12-12 21:55:00
4:15 PM,48.2,12.2,24,30.22,10.0,South,6.9,-,N/A,,Clear,170,2012-12-12 22:15:00
4:35 PM,46.4,12.2,25,30.22,10.0,SSE,6.9,-,N/A,,Clear,160,2012-12-12 22:35:00
4:55 PM,44.6,12.2,27,30.22,10.0,South,5.8,-,N/A,,Clear,170,2012-12-12 22:55:00
5:15 PM,44.6,12.2,27,30.22,10.0,SSE,4.6,-,N/A,,Clear,160,2012-12-12 23:15:00
5:35 PM,44.6,12.2,27,30.22,10.0,SSE,5.8,-,N/A,,Clear,150,2012-12-12 23:35:00
5:55 PM,41.0,14.0,33,30.22,10.0,SE,4.6,-,N/A,,Clear,140,2012-12-12 23:55:00
6:15 PM,41.0,14.0,33,30.22,10.0,SE,8.1,-,N/A,,Clear,140,2012-12-13 00:15:00
6:55 PM,39.2,14.0,36,30.22,10.0,SE,9.2,-,N/A,,Clear,140,2012-12-13 00:55:00
7:15 PM,39.2,14.0,36,30.22,10.0,SE,9.2,-,N/A,,Clear,140,2012-12-13 01:15:00
7:35 PM,37.4,15.8,41,30.22,10.0,SE,9.2,-,N/A,,Clear,140,2012-12-13 01:35:00
7:55 PM,37.4,15.8,41,30.22,10.0,SE,10.4,-,N/A,,Clear,140,2012-12-13 01:55:00
8:15 PM,37.4,17.6,45,30.21,10.0,SE,11.5,-,N/A,,Clear,140,2012-12-13 02:15:00
8:35 PM,37.4,15.8,41,30.21,10.0,SE,11.5,-,N/A,,Clear,140,2012-12-13 02:35:00
8:55 PM,37.4,15.8,41,30.20,10.0,SE,12.7,-,N/A,,Clear,140,2012-12-13 02:55:00
9:15 PM,37.4,14.0,38,30.21,10.0,SE,13.8,-,N/A,,Clear,140,2012-12-13 03:15:00
9:35 PM,37.4,15.8,41,30.22,10.0,SE,10.4,-,N/A,,Clear,140,2012-12-13 03:35:00
9:55 PM,37.4,15.8,41,30.22,10.0,SE,11.5,-,N/A,,Clear,140,2012-12-13 03:55:00
10:15 PM,37.4,15.8,41,30.23,10.0,SE,11.5,-,N/A,,Clear,140,2012-12-13 04:15:00
10:35 PM,35.6,15.8,44,30.23,10.0,SSE,10.4,-,N/A,,Clear,150,2012-12-13 04:35:00
10:55 PM,35.6,15.8,44,30.23,10.0,SSE,9.2,-,N/A,,Clear,150,2012-12-13 04:55:00
11:15 PM,35.6,17.6,48,30.24,10.0,SSE,9.2,-,N/A,,Clear,150,2012-12-13 05:15:00
11:35 PM,35.6,15.8,44,30.24,10.0,SSE,10.4,-,N/A,,Clear,150,2012-12-13 05:35:00
11:55 PM,35.6,15.8,44,30.24,10.0,SSE,10.4,-,N/A,,Clear,150,2012-12-13 05:55:00